Location: Albany
(35.0000°S, 118.0000°E)
Time: 00:58:18
(UTC-04:00)

ADEOS Rocket - Visible Passes

Search period start: 30 May 2016 00:00
Search period end: 09 June 2016 00:00
Orbit: 859 x 1307 km, 98.7° (Epoch: 29 May)

Date Brightness Start Highest point End Pass type
(mag) Time Alt. Az. Time Alt. Az. Time Alt. Az.
30 May 4.3 05:32:48 10° S 05:39:51 57° WSW 05:47:21 10° NNW visible
30 May 5.2 15:44:55 10° NE 15:45:37 14° NE 15:45:37 14° NE visible
30 May 4.8 17:32:22 10° NW 17:32:34 11° NW 17:32:34 11° NW visible
31 May 5.6 06:30:37 10° SSW 06:35:58 23° WSW 06:41:32 10° WNW visible
31 May 4.5 16:41:22 10° N 16:42:52 19° N 16:42:52 19° N visible
01 Jun 4.5 05:40:35 10° S 05:47:34 50° WSW 05:54:56 10° NW visible
01 Jun 5.1 15:52:22 10° NNE 15:53:11 15° NNE 15:53:11 15° NNE visible
02 Jun 5.7 06:38:39 10° SSW 06:43:36 20° WSW 06:48:43 10° WNW visible
02 Jun 4.6 16:49:10 10° N 16:50:27 17° NNW 16:50:27 17° NNW visible
03 Jun 4.7 05:48:24 10° S 05:55:17 43° WSW 06:02:29 10° NW visible
03 Jun 5.0 15:59:52 10° NNE 16:00:46 15° NNE 16:00:46 15° NNE visible
04 Jun 5.8 06:46:46 10° SSW 06:51:13 17° WSW 06:55:47 10° W visible
04 Jun 4.7 16:57:00 10° NNW 16:58:03 15° NNW 16:58:03 15° NNW visible
05 Jun 4.9 05:56:15 10° S 06:02:59 38° WSW 06:09:59 10° NW visible
05 Jun 5.0 16:07:24 10° NNE 16:08:23 16° NNE 16:08:23 16° NNE visible
06 Jun 5.9 06:55:00 10° SSW 06:58:49 15° WSW 07:02:43 10° W visible
06 Jun 4.8 17:04:54 10° NNW 17:05:40 14° NNW 17:05:40 14° NNW visible
07 Jun 5.1 06:04:08 10° S 06:10:41 33° WSW 06:17:24 10° NW visible
07 Jun 4.9 16:15:00 10° NNE 16:16:00 16° NNE 16:16:00 16° NNE visible
08 Jun 6.0 07:03:26 10° SW 07:06:24 13° WSW 07:09:25 10° W visible
08 Jun 4.9 17:12:51 10° NNW 17:13:17 12° NNW 17:13:17 12° NNW visible
